Weather History for Joplin, MO

Change the Weather History Date:

Monday, November 12, 2012

  Actual Average Record
Temperature  
Mean Temperature 35 °F 50 °F  
Max Temperature 47 °F 61 °F 81 °F (1999)
Min Temperature 22 °F 40 °F 14 °F (1976)
Degree Days  
Heating Degree Days 30 15  
Month to date heating degree days 147 155  
Since 1 July heating degree days 471 407  
Cooling Degree Days 0 0  
Month to date cooling degree days 4 5  
Year to date cooling degree days 2106 1696  
Moisture  
Dew Point 24 °F    
Average Humidity 68    
Maximum Humidity 92    
Minimum Humidity 41    
Precipitation  
Precipitation 0.00 in 0.14 in 3.24 in (1985)
Month to date precipitation 1.13 1.59  
Year to date precipitation 36.78 41.54  
Snow  
Snow 0.00 in - - ()
Month to date snowfall 0.0  
Snow Depth 0.00 in    
Sea Level Pressure  
Sea Level Pressure 30.43 in    
Wind  
Wind Speed 6 mph (SW)    
Max Wind Speed 18 mph    
Max Gust Speed 23 mph    
Visibility 10 miles    
Events      
T = Trace of Precipitation, MM = Missing Value Source: NWS Daily Summary

Daily Weather History Graph

Daily Weather History Graph

Search for Another Location

Airport:

Trip Planner

Search our weather history database for the weather conditions in past years. The results will help you decide how hot, cold, wet, or windy it might be!

Date:

Astronomy

Nov. 12, 2012 Rise Set
Actual Time 6:54 AM CST 5:09 PM CST
Civil Twilight 6:26 AM CST 5:37 PM CST
Nautical Twilight 5:55 AM CST 6:08 PM CST
Astronomical Twilight 5:24 AM CST 6:39 PM CST
Moon 5:21 AM CST (11/12) 4:14 PM CST (11/12)
Length of Visible Light 11h 10m
Length of Day
10h 15m
Waning Crescent, 2% of the Moon is Illuminated
Nov 12
Waning Crescent
Nov 13
New
Nov 20
First Quarter
Nov 28
Full
Dec 6
Last Quarter

Hourly Weather History & Observations

Time (CST) Temp. Windchill Dew Point Humidity Pressure Visibility Wind Dir Wind Speed Gust Speed Precip Events Conditions
12:53 AM 28.0 °F 24.2 °F 23.0 °F 81% 30.31 in 10.0 mi NW 3.5 mph - N/A   Clear
1:53 AM 28.0 °F 22.8 °F 21.9 °F 78% 30.33 in 10.0 mi NW 4.6 mph - N/A   Clear
2:53 AM 28.0 °F 24.2 °F 21.9 °F 78% 30.36 in 10.0 mi WNW 3.5 mph - N/A   Clear
3:53 AM 27.0 °F - 23.0 °F 85% 30.37 in 10.0 mi Calm Calm - N/A   Clear
4:53 AM 25.0 °F 20.7 °F 23.0 °F 92% 30.39 in 10.0 mi SW 3.5 mph - N/A   Clear
5:53 AM 23.0 °F 17.0 °F 21.0 °F 92% 30.41 in 10.0 mi SSW 4.6 mph - N/A   Clear
6:53 AM 23.0 °F 14.7 °F 21.0 °F 92% 30.42 in 10.0 mi South 6.9 mph - N/A   Clear
7:53 AM 28.0 °F 24.2 °F 24.1 °F 85% 30.44 in 10.0 mi SW 3.5 mph - N/A   Clear
8:53 AM 32.0 °F 25.6 °F 26.1 °F 79% 30.46 in 10.0 mi SW 6.9 mph - N/A   Clear
9:53 AM 36.0 °F 29.6 °F 25.0 °F 64% 30.47 in 10.0 mi WSW 8.1 mph - N/A   Clear
10:53 AM 39.9 °F 34.5 °F 24.1 °F 53% 30.47 in 10.0 mi WSW 8.1 mph - N/A   Clear
11:53 AM 42.1 °F 36.1 °F 25.0 °F 51% 30.45 in 10.0 mi West 10.4 mph - N/A   Clear
12:53 PM 46.0 °F 41.9 °F 24.1 °F 42% 30.44 in 10.0 mi West 8.1 mph - N/A   Clear
1:53 PM 46.9 °F - 25.0 °F 42% 30.43 in 10.0 mi WSW 13.8 mph 19.6 mph N/A   Clear
2:53 PM 46.0 °F 39.9 °F 24.1 °F 42% 30.43 in 10.0 mi WSW 13.8 mph - N/A   Clear
3:53 PM 46.9 °F - 24.1 °F 41% 30.44 in 10.0 mi West 10.4 mph 19.6 mph N/A   Clear
4:53 PM 44.1 °F 40.8 °F 26.1 °F 49% 30.44 in 10.0 mi WSW 5.8 mph - N/A   Clear
5:53 PM 41.0 °F 39.0 °F 25.0 °F 53% 30.44 in 10.0 mi SW 3.5 mph - N/A   Clear
6:53 PM 37.0 °F 34.5 °F 26.1 °F 65% 30.47 in 10.0 mi South 3.5 mph - N/A   Clear
7:53 PM 35.1 °F 31.0 °F 26.1 °F 70% 30.47 in 10.0 mi South 4.6 mph - N/A   Clear
8:53 PM 33.1 °F 28.7 °F 26.1 °F 75% 30.48 in 10.0 mi South 4.6 mph - N/A   Clear
9:53 PM 32.0 °F 27.5 °F 25.0 °F 75% 30.49 in 10.0 mi South 4.6 mph - N/A   Clear
10:53 PM 30.9 °F 26.2 °F 25.0 °F 79% 30.48 in 10.0 mi South 4.6 mph - N/A   Clear
11:53 PM 30.0 °F 24.1 °F 24.1 °F 79% 30.49 in 10.0 mi South 5.8 mph - N/A   Clear